Weather in Aguascalientes

Mexico     21°52′42″N   102°17′49″W
temp.,
°C
wind,
m/s
gust,
m/s
humid.,
%
clouds,
%
prec.,
mm/h
press.,
hPa
HPBL,
m
24 january, mon
mon2400:00+12sw2255100 0.0 101415
03:00+10ssw225991 0.0 101414
06:00+10ssw2361100 0.0 101525
09:00+12ssw465851 0.0 1016339
12:00+20ssw111623100 0.0 10111992
15:00+19sw111531100 0.0 10081882
18:00+15w6948100 0.1 1011597
21:00+12w356990 0.3 1015271
25 january, tue
tue2500:00+10sw337832 0.3 101635
03:00+11ssw477064 0.0 1014326
06:00+8sw33850 0.0 101626
09:00+11sw24720 0.0 1017291
12:00+18sw57430 0.0 10141488
15:00+22wsw68284 0.0 10092408
18:00+20w793010 0.0 1010601
21:00+14w3342100 0.0 101427
26 january, wed
wed2600:00+12wsw2248100 0.0 101513
03:00+11sw2254100 0.0 101516
06:00+10ssw226272 0.0 101615
09:00+13ssw23568 0.0 1018239
12:00+20ssw56337 0.0 10151345
15:00+23wsw672597 0.0 10102323
18:00+21wsw5728100 0.0 1010367
21:00+17wsw6842100 0.0 1015497
27 january, thu
thu2700:00+16wsw4851100 0.1 1017315
03:00+15ssw12535 0.0 101539
06:00+11sw33735 0.0 101733
09:00+14ssw33600 0.0 1019269
12:00+21sw57345 0.0 10161566
15:00+23wsw6825100 0.0 10112748
18:00+21w7928100 0.0 1012615
21:00+15w3341100 0.0 101623
28 january, fri
fri2800:00+13sw1247100 0.0 101713
03:00+12wsw2251100 0.0 101712
06:00+11sw1254100 0.0 101712
09:00+14ne2344100 0.0 1020223
12:00+20nne442837 0.0 10181464
15:00+22ne342345 0.0 10142465
18:00+21ene562648 0.0 1014278
21:00+15nne81350100 0.0 1020487